| time (UTC) | temp F | wind direction | speed knots | gust knots | rain 1hr in | rain 24hr in | rain mn in | humidity % | barometer mb |
| 20260906113330 | 71 | 52 | 0.9 | 2.6 | 0.00 | 0.00 | 0.00 | 86 | 1018.3 |
| 20260906112831 | 71 | 60 | 2.6 | 2.6 | 0.00 | 0.00 | 0.00 | 86 | 1018.2 |
| 20260906112331 | 71 | 34 | 4.3 | 2.6 | 0.00 | 0.00 | 0.00 | 86 | 1018.2 |
| 20260906111831 | 72 | 57 | 4.3 | 2.6 | 0.00 | 0.00 | 0.00 | 86 | 1018.1 |
| 20260906111331 | 72 | 65 | 0.9 | 2.6 | 0.00 | 0.00 | 0.00 | 86 | 1018.1 |
| 20260906110831 | 72 | 50 | 1.7 | 2.6 | 0.00 | 0.00 | 0.00 | 86 | 1018.0 |
| 20260906110330 | 72 | 38 | 1.7 | 2.6 | 0.00 | 0.00 | 0.00 | 86 | 1018.1 |
| 20260906105831 | 72 | 62 | 2.6 | 2.6 | 0.00 | 0.00 | 0.00 | 86 | 1018.1 |
| 20260906105331 | 72 | 77 | 2.6 | 1.7 | 0.00 | 0.00 | 0.00 | 85 | 1018.0 |
| 20260906104831 | 72 | 70 | 6.1 | 1.7 | 0.00 | 0.00 | 0.00 | 85 | 1017.9 |
| 20260906104332 | 72 | 58 | 2.6 | 1.7 | 0.00 | 0.00 | 0.00 | 85 | 1017.9 |
| 20260906103831 | 72 | 55 | 1.7 | 1.7 | 0.00 | 0.00 | 0.00 | 85 | 1017.6 |
| 20260906103331 | 73 | 75 | 1.7 | 1.7 | 0.00 | 0.00 | 0.00 | 85 | 1017.5 |
| 20260906102831 | 73 | 89 | 1.7 | 1.7 | 0.00 | 0.00 | 0.00 | 85 | 1017.5 |
| 20260906102331 | 73 | 49 | 1.7 | 1.7 | 0.00 | 0.00 | 0.00 | 84 | 1017.5 |
| 20260906101831 | 73 | 68 | 0.9 | 2.6 | 0.00 | 0.00 | 0.00 | 84 | 1017.4 |
| 20260906101331 | 73 | 56 | 2.6 | 1.7 | 0.00 | 0.00 | 0.00 | 84 | 1017.5 |
| 20260906100831 | 73 | 34 | 1.7 | 1.7 | 0.00 | 0.00 | 0.00 | 84 | 1017.5 |
| 20260906100331 | 73 | 63 | 2.6 | 2.6 | 0.00 | 0.00 | 0.00 | 84 | 1017.5 |
| 20260906095831 | 73 | 72 | 1.7 | 1.7 | 0.00 | 0.00 | 0.00 | 84 | 1017.4 |
| 20260906095331 | 73 | 72 | 2.6 | 1.7 | 0.00 | 0.00 | 0.00 | 83 | 1017.4 |
| 20260906094831 | 73 | 68 | 1.7 | 1.7 | 0.00 | 0.00 | 0.00 | 83 | 1017.4 |
| 20260906094331 | 73 | 50 | 0.9 | 2.6 | 0.00 | 0.00 | 0.00 | 83 | 1017.4 |
| 20260906093832 | 73 | 24 | 1.7 | 2.6 | 0.00 | 0.00 | 0.00 | 83 | 1017.3 |
| 20260906093331 | 73 | 60 | 3.5 | 1.7 | 0.00 | 0.00 | 0.00 | 83 | 1017.3 |
| 20260906092832 | 73 | 41 | 0.9 | 1.7 | 0.00 | 0.00 | 0.00 | 83 | 1017.2 |
| 20260906092330 | 73 | 64 | 0.9 | 1.7 | 0.00 | 0.00 | 0.00 | 83 | 1017.4 |
| 20260906091831 | 74 | 49 | 0.9 | 1.7 | 0.00 | 0.00 | 0.00 | 83 | 1017.4 |
| 20260906091331 | 74 | 19 | 1.7 | 2.6 | 0.00 | 0.00 | 0.00 | 83 | 1017.3 |
| 20260906090831 | 74 | 74 | 3.5 | 1.7 | 0.00 | 0.00 | 0.00 | 83 | 1017.3 |
| 20260906090330 | 74 | 58 | 3.5 | 1.7 | 0.00 | 0.00 | 0.00 | 83 | 1017.2 |
| 20260906085831 | 74 | 48 | 1.7 | 2.6 | 0.00 | 0.00 | 0.00 | 83 | 1017.2 |
| 20260906085330 | 74 | 68 | 3.5 | 2.6 | 0.00 | 0.00 | 0.00 | 82 | 1017.2 |
| 20260906084831 | 74 | 60 | 1.7 | 1.7 | 0.00 | 0.00 | 0.00 | 83 | 1017.3 |
| 20260906084330 | 74 | 70 | 4.3 | 1.7 | 0.00 | 0.00 | 0.00 | 83 | 1017.3 |
| 20260906083831 | 73 | 70 | 0.9 | 2.6 | 0.00 | 0.00 | 0.00 | 83 | 1017.3 |
| 20260906083331 | 74 | 64 | 2.6 | 2.6 | 0.00 | 0.00 | 0.00 | 83 | 1017.3 |
| 20260906082831 | 74 | 68 | 2.6 | 2.6 | 0.00 | 0.00 | 0.00 | 83 | 1017.2 |
| 20260906082331 | 74 | 81 | 3.5 | 1.7 | 0.00 | 0.00 | 0.00 | 83 | 1017.2 |
| 20260906081831 | 74 | 47 | 0.9 | 1.7 | 0.00 | 0.00 | 0.00 | 83 | 1017.2 |
| 20260906081330 | 74 | 77 | 0.9 | 2.6 | 0.00 | 0.00 | 0.00 | 84 | 1017.2 |
| 20260906080833 | 74 | 73 | 2.6 | 2.6 | 0.00 | 0.00 | 0.00 | 84 | 1017.2 |
| 20260906080330 | 74 | 77 | 3.5 | 1.7 | 0.00 | 0.00 | 0.00 | 84 | 1017.2 |
| 20260906075831 | 74 | 0 | 0.0 | 1.7 | 0.00 | 0.00 | 0.00 | 84 | 1017.3 |
| 20260906075332 | 74 | 69 | 0.9 | 1.7 | 0.00 | 0.00 | 0.00 | 84 | 1017.2 |
| 20260906074831 | 74 | 44 | 3.5 | 1.7 | 0.00 | 0.00 | 0.00 | 84 | 1017.2 |
| 20260906074330 | 74 | 55 | 2.6 | 1.7 | 0.00 | 0.00 | 0.00 | 84 | 1017.2 |
| 20260906073831 | 74 | 0 | 0.0 | 2.6 | 0.00 | 0.00 | 0.00 | 84 | 1017.2 |
| 20260906073330 | 74 | 51 | 1.7 | 2.6 | 0.00 | 0.00 | 0.00 | 84 | 1017.2 |
| 20260906072831 | 74 | 1 | 1.7 | 2.6 | 0.00 | 0.00 | 0.00 | 84 | 1017.3 |
| 20260906072330 | 74 | 40 | 1.7 | 2.6 | 0.00 | 0.00 | 0.00 | 85 | 1017.3 |
| 20260906071832 | 74 | 50 | 3.5 | 3.5 | 0.00 | 0.00 | 0.00 | 85 | 1017.5 |
| 20260906071330 | 74 | 68 | 0.9 | 2.6 | 0.00 | 0.00 | 0.00 | 85 | 1017.5 |
| 20260906070831 | 74 | 49 | 0.9 | 1.7 | 0.00 | 0.00 | 0.00 | 85 | 1017.4 |
| 20260906070330 | 74 | 68 | 1.7 | 1.7 | 0.00 | 0.00 | 0.00 | 85 | 1017.4 |
| 20260906065831 | 74 | 76 | 1.7 | 0.9 | 0.00 | 0.00 | 0.00 | 85 | 1017.3 |
| 20260906065330 | 74 | 0 | 0.0 | 0.9 | 0.00 | 0.00 | 0.00 | 85 | 1017.4 |
| 20260906064831 | 74 | 67 | 1.7 | 1.7 | 0.00 | 0.00 | 0.00 | 85 | 1017.4 |
| 20260906064330 | 74 | 73 | 0.9 | 1.7 | 0.00 | 0.00 | 0.00 | 85 | 1017.4 |
| 20260906063831 | 74 | 4 | 2.6 | 1.7 | 0.00 | 0.00 | 0.00 | 85 | 1017.4 |
| 20260906063331 | 73 | 53 | 1.7 | 1.7 | 0.00 | 0.00 | 0.00 | 86 | 1017.4 |
| 20260906062831 | 73 | 64 | 1.7 | 1.7 | 0.00 | 0.00 | 0.00 | 86 | 1017.4 |
| 20260906062331 | 73 | 47 | 0.9 | 1.7 | 0.00 | 0.00 | 0.00 | 86 | 1017.3 |
| 20260906061831 | 73 | 72 | 1.7 | 1.7 | 0.00 | 0.00 | 0.00 | 87 | 1017.3 |
| 20260906061331 | 73 | 35 | 1.7 | 0.9 | 0.00 | 0.00 | 0.00 | 87 | 1017.4 |
| 20260906060831 | 73 | 337 | 1.7 | 0.9 | 0.00 | 0.00 | 0.00 | 87 | 1017.4 |
| 20260906060330 | 73 | 1 | 1.7 | 0.9 | 0.00 | 0.00 | 0.00 | 87 | 1017.4 |
| 20260906055831 | 73 | 61 | 0.9 | 0.9 | 0.00 | 0.00 | 0.00 | 87 | 1017.4 |
| 20260906055331 | 73 | 18 | 0.9 | 1.7 | 0.00 | 0.00 | 0.00 | 88 | 1017.4 |
| 20260906054831 | 73 | 56 | 1.7 | 1.7 | 0.00 | 0.00 | 0.00 | 88 | 1017.3 |
| 20260906054330 | 73 | 32 | 0.9 | 1.7 | 0.00 | 0.00 | 0.00 | 88 | 1017.3 |
| 20260906053831 | 73 | 354 | 4.3 | 1.7 | 0.00 | 0.00 | 0.00 | 88 | 1017.4 |
| 20260906053331 | 73 | 20 | 1.7 | 1.7 | 0.00 | 0.00 | 0.00 | 88 | 1017.4 |
| 20260906052831 | 73 | 65 | 1.7 | 2.6 | 0.00 | 0.00 | 0.00 | 88 | 1017.3 |
| 20260906052330 | 73 | 41 | 3.5 | 2.6 | 0.00 | 0.00 | 0.00 | 88 | 1017.1 |
| 20260906051831 | 73 | 28 | 2.6 | 1.7 | 0.00 | 0.00 | 0.00 | 88 | 1017.0 |
| 20260906051330 | 73 | 12 | 4.3 | 1.7 | 0.00 | 0.00 | 0.00 | 88 | 1016.9 |
| 20260906050831 | 73 | 0 | 0.0 | 1.7 | 0.00 | 0.00 | 0.00 | 88 | 1017.0 |
| 20260906050330 | 73 | 348 | 0.9 | 2.6 | 0.00 | 0.00 | 0.00 | 88 | 1017.0 |
| 20260906045830 | 73 | 38 | 0.9 | 2.6 | 0.00 | 0.00 | 0.00 | 88 | 1017.0 |
| 20260906045330 | 73 | 65 | 0.9 | 2.6 | 0.00 | 0.00 | 0.00 | 88 | 1017.0 |
| 20260906044831 | 73 | 57 | 2.6 | 2.6 | 0.00 | 0.00 | 0.00 | 88 | 1016.9 |
| 20260906044330 | 73 | 50 | 0.9 | 3.5 | 0.00 | 0.00 | 0.00 | 88 | 1016.8 |
| 20260906043832 | 73 | 41 | 7.8 | 3.5 | 0.00 | 0.00 | 0.00 | 88 | 1016.8 |
| 20260906043330 | 73 | 57 | 4.3 | 3.5 | 0.00 | 0.00 | 0.00 | 87 | 1016.7 |
| 20260906042831 | 73 | 39 | 1.7 | 3.5 | 0.00 | 0.00 | 0.00 | 88 | 1016.6 |
| 20260906042330 | 73 | 79 | 3.5 | 3.5 | 0.00 | 0.00 | 0.00 | 87 | 1016.5 |
| 20260906041830 | 73 | 52 | 3.5 | 2.6 | 0.00 | 0.00 | 0.00 | 87 | 1016.6 |
| 20260906041330 | 73 | 86 | 3.5 | 3.5 | 0.00 | 0.00 | 0.00 | 87 | 1016.6 |
| 20260906040831 | 73 | 341 | 2.6 | 3.5 | 0.00 | 0.00 | 0.00 | 87 | 1016.5 |
| 20260906040330 | 73 | 47 | 3.5 | 2.6 | 0.00 | 0.00 | 0.00 | 87 | 1016.5 |
| 20260906035831 | 73 | 360 | 4.3 | 2.6 | 0.00 | 0.00 | 0.00 | 87 | 1016.5 |
| 20260906035330 | 73 | 22 | 2.6 | 3.5 | 0.00 | 0.00 | 0.00 | 87 | 1016.5 |
| 20260906034831 | 73 | 11 | 3.5 | 3.5 | 0.00 | 0.00 | 0.00 | 87 | 1016.4 |
| 20260906034331 | 73 | 60 | 4.3 | 3.5 | 0.00 | 0.00 | 0.00 | 87 | 1016.4 |
| 20260906033830 | 74 | 56 | 2.6 | 3.5 | 0.00 | 0.00 | 0.00 | 87 | 1016.4 |
| 20260906033330 | 74 | 59 | 3.5 | 2.6 | 0.00 | 0.00 | 0.00 | 87 | 1016.4 |
| 20260906032830 | 74 | 56 | 1.7 | 2.6 | 0.00 | 0.00 | 0.00 | 86 | 1016.4 |
| 20260906032330 | 74 | 359 | 1.7 | 3.5 | 0.00 | 0.00 | 0.00 | 86 | 1016.4 |
| 20260906031830 | 74 | 70 | 2.6 | 3.5 | 0.00 | 0.00 | 0.00 | 86 | 1016.5 |
| 20260906031330 | 74 | 49 | 8.7 | 2.6 | 0.00 | 0.00 | 0.00 | 86 | 1016.4 |
| 20260906030831 | 74 | 18 | 2.6 | 2.6 | 0.00 | 0.00 | 0.00 | 86 | 1016.5 |
| 20260906030330 | 74 | 26 | 1.7 | 3.5 | 0.00 | 0.00 | 0.00 | 86 | 1016.4 |
| 20260906025831 | 74 | 359 | 2.6 | 3.5 | 0.00 | 0.00 | 0.00 | 86 | 1016.4 |
| 20260906025330 | 74 | 58 | 2.6 | 3.5 | 0.00 | 0.00 | 0.00 | 86 | 1016.3 |
| 20260906024830 | 74 | 350 | 5.2 | 3.5 | 0.00 | 0.00 | 0.00 | 85 | 1016.2 |
| 20260906024330 | 74 | 61 | 1.7 | 3.5 | 0.00 | 0.00 | 0.00 | 85 | 1016.2 |
| 20260906023830 | 74 | 359 | 3.5 | 3.5 | 0.00 | 0.00 | 0.00 | 85 | 1016.2 |
| 20260906023330 | 74 | 33 | 3.5 | 3.5 | 0.00 | 0.00 | 0.00 | 85 | 1016.2 |
| 20260906022831 | 74 | 359 | 3.5 | 3.5 | 0.00 | 0.00 | 0.00 | 85 | 1016.3 |
| 20260906022330 | 74 | 359 | 4.3 | 3.5 | 0.00 | 0.00 | 0.00 | 85 | 1016.3 |
| 20260906021831 | 74 | 51 | 4.3 | 3.5 | 0.00 | 0.00 | 0.00 | 85 | 1016.4 |
| 20260906021330 | 74 | 79 | 5.2 | 3.5 | 0.00 | 0.00 | 0.00 | 85 | 1016.5 |
| 20260906020831 | 74 | 64 | 5.2 | 2.6 | 0.00 | 0.00 | 0.00 | 84 | 1016.4 |
| 20260906020330 | 74 | 65 | 0.9 | 3.5 | 0.00 | 0.00 | 0.00 | 85 | 1016.5 |
| 20260906015831 | 74 | 56 | 1.7 | 3.5 | 0.00 | 0.00 | 0.00 | 84 | 1016.5 |
| 20260906015330 | 74 | 56 | 6.1 | 3.5 | 0.00 | 0.00 | 0.00 | 84 | 1016.4 |
| 20260906014830 | 74 | 27 | 0.9 | 3.5 | 0.00 | 0.00 | 0.00 | 84 | 1016.5 |
| 20260906014330 | 74 | 77 | 2.6 | 3.5 | 0.00 | 0.00 | 0.00 | 84 | 1016.5 |
| 20260906013831 | 74 | 7 | 4.3 | 3.5 | 0.00 | 0.00 | 0.00 | 84 | 1016.5 |
| 20260906013331 | 74 | 60 | 1.7 | 3.5 | 0.00 | 0.00 | 0.00 | 84 | 1016.5 |
| 20260906012831 | 74 | 66 | 1.7 | 2.6 | 0.00 | 0.00 | 0.00 | 85 | 1016.4 |
| 20260906012330 | 74 | 11 | 4.3 | 3.5 | 0.00 | 0.00 | 0.00 | 85 | 1016.4 |
| 20260906011830 | 74 | 31 | 1.7 | 3.5 | 0.00 | 0.00 | 0.00 | 85 | 1016.4 |
| 20260906011330 | 74 | 1 | 5.2 | 3.5 | 0.00 | 0.00 | 0.00 | 85 | 1016.3 |
| 20260906010831 | 74 | 4 | 2.6 | 3.5 | 0.00 | 0.00 | 0.00 | 85 | 1016.1 |
| 20260906010331 | 74 | 30 | 3.5 | 3.5 | 0.00 | 0.00 | 0.00 | 85 | 1016.1 |
| 20260906005832 | 74 | 19 | 4.3 | 3.5 | 0.00 | 0.00 | 0.00 | 85 | 1016.0 |
| 20260906005331 | 74 | 28 | 2.6 | 4.3 | 0.00 | 0.00 | 0.00 | 85 | 1015.8 |
| 20260906004831 | 74 | 20 | 2.6 | 3.5 | 0.00 | 0.00 | 0.00 | 85 | 1015.7 |
| 20260906004331 | 74 | 63 | 3.5 | 3.5 | 0.00 | 0.00 | 0.00 | 85 | 1015.7 |
| 20260906003831 | 74 | 48 | 3.5 | 3.5 | 0.00 | 0.00 | 0.00 | 85 | 1015.7 |
| 20260906003331 | 74 | 359 | 5.2 | 3.5 | 0.00 | 0.00 | 0.00 | 85 | 1015.7 |
| 20260906002831 | 74 | 35 | 1.7 | 3.5 | 0.00 | 0.00 | 0.00 | 85 | 1015.5 |
| 20260906002331 | 74 | 85 | 4.3 | 3.5 | 0.00 | 0.00 | 0.00 | 85 | 1015.7 |
| 20260906001831 | 74 | 356 | 6.1 | 3.5 | 0.00 | 0.00 | 0.00 | 85 | 1015.6 |
| 20260906001331 | 74 | 5 | 1.7 | 3.5 | 0.00 | 0.00 | 0.00 | 85 | 1015.6 |
| 20260906000831 | 74 | 23 | 3.5 | 3.5 | 0.00 | 0.00 | 0.00 | 85 | 1015.6 |
| 20260906000333 | 74 | 46 | 5.2 | 3.5 | 0.00 | 0.00 | 0.00 | 85 | 1015.6 |
| 20260905235831 | 74 | 44 | 3.5 | 3.5 | 0.00 | 0.00 | 0.00 | 85 | 1015.7 |
| 20260905235331 | 74 | 6 | 2.6 | 3.5 | 0.00 | 0.00 | 0.00 | 85 | 1015.6 |
| 20260905234831 | 74 | 67 | 2.6 | 4.3 | 0.00 | 0.00 | 0.00 | 85 | 1015.6 |
| 20260905234331 | 73 | 295 | 1.7 | 4.3 | 0.00 | 0.00 | 0.00 | 84 | 1015.7 |
| 20260905233831 | 73 | 13 | 3.5 | 4.3 | 0.00 | 0.00 | 0.00 | 84 | 1015.7 |
| 20260905233331 | 74 | 89 | 3.5 | 4.3 | 0.00 | 0.00 | 0.00 | 84 | 1015.7 |
| 20260905232831 | 74 | 55 | 5.2 | 3.5 | 0.00 | 0.00 | 0.00 | 84 | 1015.7 |
| 20260905232331 | 74 | 39 | 5.2 | 3.5 | 0.00 | 0.00 | 0.00 | 84 | 1015.7 |
| 20260905231831 | 74 | 350 | 2.6 | 3.5 | 0.00 | 0.00 | 0.00 | 84 | 1015.7 |
| 20260905231331 | 74 | 34 | 4.3 | 4.3 | 0.00 | 0.00 | 0.00 | 84 | 1015.5 |
| 20260905230831 | 74 | 83 | 3.5 | 4.3 | 0.00 | 0.00 | 0.00 | 84 | 1015.5 |
| 20260905230331 | 74 | 79 | 4.3 | 4.3 | 0.00 | 0.00 | 0.00 | 84 | 1015.5 |
| 20260905225831 | 75 | 17 | 7.0 | 3.5 | 0.00 | 0.00 | 0.00 | 84 | 1015.3 |
| 20260905225331 | 75 | 11 | 9.6 | 4.3 | 0.00 | 0.00 | 0.00 | 83 | 1015.4 |
| 20260905224831 | 75 | 29 | 5.2 | 5.2 | 0.00 | 0.00 | 0.00 | 82 | 1015.5 |
| 20260905224331 | 76 | 39 | 4.3 | 4.3 | 0.00 | 0.00 | 0.00 | 82 | 1015.6 |
| 20260905223831 | 76 | 30 | 12.2 | 3.5 | 0.00 | 0.00 | 0.00 | 82 | 1015.6 |
| 20260905223331 | 77 | 1 | 2.6 | 4.3 | 0.00 | 0.00 | 0.00 | 81 | 1015.5 |
| 20260905222831 | 77 | 30 | 3.5 | 4.3 | 0.00 | 0.00 | 0.00 | 81 | 1015.6 |
| 20260905222332 | 77 | 45 | 2.6 | 3.5 | 0.00 | 0.00 | 0.00 | 80 | 1015.4 |
| 20260905221831 | 77 | 360 | 1.7 | 3.5 | 0.00 | 0.00 | 0.00 | 80 | 1015.3 |
| 20260905221331 | 77 | 354 | 2.6 | 3.5 | 0.00 | 0.00 | 0.00 | 80 | 1015.2 |
| 20260905220831 | 77 | 360 | 0.9 | 4.3 | 0.00 | 0.00 | 0.00 | 80 | 1015.2 |
| 20260905220331 | 78 | 1 | 7.0 | 4.3 | 0.00 | 0.00 | 0.00 | 80 | 1015.2 |
| 20260905215831 | 78 | 8 | 4.3 | 4.3 | 0.00 | 0.00 | 0.00 | 79 | 1015.2 |
| 20260905215331 | 78 | 316 | 3.5 | 4.3 | 0.00 | 0.00 | 0.00 | 79 | 1015.1 |
| 20260905214832 | 78 | 351 | 4.3 | 4.3 | 0.00 | 0.00 | 0.00 | 79 | 1015.1 |
| 20260905214331 | 78 | 65 | 7.8 | 4.3 | 0.00 | 0.00 | 0.00 | 79 | 1015.0 |
| 20260905213832 | 79 | 9 | 7.0 | 4.3 | 0.00 | 0.00 | 0.00 | 79 | 1015.0 |
| 20260905213331 | 79 | 56 | 2.6 | 4.3 | 0.00 | 0.00 | 0.00 | 78 | 1014.9 |
| 20260905212831 | 79 | 352 | 4.3 | 4.3 | 0.00 | 0.00 | 0.00 | 78 | 1014.9 |
| 20260905212331 | 79 | 359 | 3.5 | 3.5 | 0.00 | 0.00 | 0.00 | 78 | 1014.9 |
| 20260905211831 | 79 | 31 | 1.7 | 3.5 | 0.00 | 0.00 | 0.00 | 78 | 1014.9 |
| 20260905211331 | 79 | 75 | 5.2 | 4.3 | 0.00 | 0.00 | 0.00 | 78 | 1014.9 |
| 20260905210831 | 79 | 39 | 3.5 | 4.3 | 0.00 | 0.00 | 0.00 | 78 | 1014.9 |
| 20260905210330 | 79 | 74 | 3.5 | 3.5 | 0.00 | 0.00 | 0.00 | 77 | 1015.0 |
| 20260905205831 | 79 | 326 | 4.3 | 4.3 | 0.00 | 0.00 | 0.00 | 78 | 1014.9 |
| 20260905205331 | 79 | 331 | 7.0 | 3.5 | 0.00 | 0.00 | 0.00 | 78 | 1015.0 |
| 20260905204832 | 79 | 360 | 3.5 | 4.3 | 0.00 | 0.00 | 0.00 | 78 | 1015.0 |
| 20260905204330 | 79 | 12 | 2.6 | 4.3 | 0.00 | 0.00 | 0.00 | 78 | 1015.0 |
| 20260905203832 | 79 | 35 | 4.3 | 5.2 | 0.00 | 0.00 | 0.00 | 77 | 1014.9 |
| 20260905203330 | 80 | 67 | 4.3 | 5.2 | 0.00 | 0.00 | 0.00 | 77 | 1015.0 |
| 20260905202831 | 80 | 58 | 5.2 | 5.2 | 0.00 | 0.00 | 0.00 | 77 | 1014.9 |
| 20260905202331 | 79 | 360 | 5.2 | 5.2 | 0.00 | 0.00 | 0.00 | 77 | 1014.9 |
| 20260905201831 | 80 | 3 | 6.1 | 4.3 | 0.00 | 0.00 | 0.00 | 76 | 1015.0 |
| 20260905201332 | 80 | 20 | 3.5 | 4.3 | 0.00 | 0.00 | 0.00 | 76 | 1015.0 |
| 20260905200831 | 80 | 67 | 2.6 | 4.3 | 0.00 | 0.00 | 0.00 | 76 | 1015.0 |
| 20260905200331 | 80 | 2 | 4.3 | 3.5 | 0.00 | 0.00 | 0.00 | 76 | 1015.0 |
| 20260905195831 | 80 | 345 | 4.3 | 4.3 | 0.00 | 0.00 | 0.00 | 76 | 1015.0 |
| 20260905195330 | 80 | 356 | 6.1 | 5.2 | 0.00 | 0.00 | 0.00 | 76 | 1015.1 |
| 20260905194831 | 80 | 96 | 5.2 | 5.2 | 0.00 | 0.00 | 0.00 | 75 | 1015.1 |
| 20260905194330 | 80 | 351 | 5.2 | 4.3 | 0.00 | 0.00 | 0.00 | 75 | 1015.1 |
| 20260905193831 | 80 | 29 | 2.6 | 4.3 | 0.00 | 0.00 | 0.00 | 75 | 1015.1 |
| 20260905193331 | 81 | 11 | 3.5 | 4.3 | 0.00 | 0.00 | 0.00 | 75 | 1015.1 |
| 20260905192831 | 81 | 34 | 3.5 | 5.2 | 0.00 | 0.00 | 0.00 | 76 | 1015.2 |
| 20260905192332 | 81 | 353 | 4.3 | 5.2 | 0.00 | 0.00 | 0.00 | 75 | 1015.3 |
| 20260905191831 | 80 | 1 | 5.2 | 5.2 | 0.00 | 0.00 | 0.00 | 76 | 1015.2 |
| 20260905191332 | 80 | 41 | 2.6 | 6.1 | 0.00 | 0.00 | 0.00 | 76 | 1015.3 |
| 20260905190831 | 80 | 293 | 8.7 | 6.1 | 0.00 | 0.00 | 0.00 | 76 | 1015.2 |
| 20260905190330 | 80 | 342 | 4.3 | 6.1 | 0.00 | 0.00 | 0.00 | 76 | 1015.3 |
| 20260905185831 | 80 | 1 | 4.3 | 4.3 | 0.00 | 0.00 | 0.00 | 76 | 1015.2 |
| 20260905185331 | 80 | 328 | 3.5 | 3.5 | 0.00 | 0.00 | 0.00 | 77 | 1015.3 |
| 20260905184832 | 80 | 65 | 2.6 | 4.3 | 0.00 | 0.00 | 0.00 | 78 | 1015.3 |
| 20260905184331 | 80 | 15 | 4.3 | 5.2 | 0.00 | 0.00 | 0.00 | 78 | 1015.3 |
| 20260905183831 | 80 | 319 | 7.0 | 5.2 | 0.00 | 0.00 | 0.00 | 77 | 1015.4 |
| 20260905183331 | 80 | 321 | 7.8 | 5.2 | 0.00 | 0.00 | 0.00 | 76 | 1015.4 |
| 20260905182831 | 81 | 311 | 5.2 | 3.5 | 0.00 | 0.00 | 0.00 | 76 | 1015.5 |
| 20260905182331 | 81 | 349 | 11.3 | 3.5 | 0.00 | 0.00 | 0.00 | 76 | 1015.4 |
| 20260905181831 | 80 | 53 | 4.3 | 4.3 | 0.00 | 0.00 | 0.00 | 77 | 1015.5 |
| 20260905181330 | 80 | 4 | 4.3 | 3.5 | 0.00 | 0.00 | 0.00 | 77 | 1015.4 |
| 20260905180831 | 80 | 15 | 4.3 | 4.3 | 0.00 | 0.00 | 0.00 | 77 | 1015.4 |
| 20260905180330 | 80 | 84 | 4.3 | 3.5 | 0.00 | 0.00 | 0.00 | 77 | 1015.3 |
| 20260905175831 | 80 | 334 | 9.6 | 3.5 | 0.00 | 0.00 | 0.00 | 77 | 1015.4 |
| 20260905175330 | 80 | 11 | 5.2 | 4.3 | 0.00 | 0.00 | 0.00 | 78 | 1015.2 |
| 20260905174831 | 80 | 119 | 1.7 | 3.5 | 0.00 | 0.00 | 0.00 | 78 | 1015.3 |
| 20260905174330 | 80 | 359 | 7.0 | 4.3 | 0.00 | 0.00 | 0.00 | 78 | 1015.3 |
| 20260905173831 | 79 | 335 | 4.3 | 4.3 | 0.00 | 0.00 | 0.00 | 79 | 1015.3 |
| 20260905173330 | 79 | 360 | 2.6 | 4.3 | 0.00 | 0.00 | 0.00 | 80 | 1015.2 |
| 20260905172831 | 79 | 25 | 1.7 | 4.3 | 0.00 | 0.00 | 0.00 | 80 | 1015.2 |
| 20260905172330 | 78 | 348 | 9.6 | 4.3 | 0.00 | 0.00 | 0.00 | 80 | 1015.3 |
| 20260905171831 | 79 | 57 | 4.3 | 4.3 | 0.00 | 0.00 | 0.00 | 80 | 1015.4 |
| 20260905171330 | 79 | 41 | 3.5 | 4.3 | 0.00 | 0.00 | 0.00 | 80 | 1015.3 |
| 20260905170831 | 79 | 39 | 8.7 | 4.3 | 0.00 | 0.00 | 0.00 | 79 | 1015.3 |
| 20260905170331 | 80 | 57 | 2.6 | 4.3 | 0.00 | 0.00 | 0.00 | 78 | 1015.4 |
| 20260905165831 | 80 | 331 | 8.7 | 4.3 | 0.00 | 0.00 | 0.00 | 78 | 1015.5 |
| 20260905165331 | 80 | 316 | 7.0 | 5.2 | 0.00 | 0.00 | 0.00 | 78 | 1015.4 |
| 20260905164831 | 80 | 12 | 4.3 | 5.2 | 0.00 | 0.00 | 0.00 | 77 | 1015.4 |
| 20260905164331 | 81 | 360 | 6.1 | 4.3 | 0.00 | 0.00 | 0.00 | 76 | 1015.4 |
| 20260905163831 | 81 | 54 | 1.7 | 4.3 | 0.00 | 0.00 | 0.00 | 76 | 1015.3 |
| 20260905163330 | 82 | 68 | 7.0 | 3.5 | 0.00 | 0.00 | 0.00 | 76 | 1015.3 |
| 20260905162831 | 82 | 7 | 2.6 | 3.5 | 0.00 | 0.00 | 0.00 | 75 | 1015.4 |
| 20260905162331 | 82 | 44 | 2.6 | 3.5 | 0.00 | 0.00 | 0.00 | 76 | 1015.4 |
| 20260905161831 | 82 | 328 | 2.6 | 3.5 | 0.00 | 0.00 | 0.00 | 76 | 1015.3 |
| 20260905161330 | 81 | 45 | 2.6 | 3.5 | 0.00 | 0.00 | 0.00 | 77 | 1015.2 |
| 20260905160831 | 81 | 72 | 1.7 | 3.5 | 0.00 | 0.00 | 0.00 | 77 | 1015.3 |
| 20260905160330 | 81 | 44 | 6.1 | 3.5 | 0.00 | 0.00 | 0.00 | 77 | 1015.2 |
| 20260905155831 | 81 | 58 | 2.6 | 3.5 | 0.00 | 0.00 | 0.00 | 76 | 1015.2 |
| 20260905155330 | 81 | 356 | 1.7 | 4.3 | 0.00 | 0.00 | 0.00 | 76 | 1015.1 |
| 20260905154831 | 81 | 359 | 3.5 | 4.3 | 0.00 | 0.00 | 0.00 | 76 | 1015.1 |
| 20260905154330 | 82 | 66 | 4.3 | 4.3 | 0.00 | 0.00 | 0.00 | 76 | 1015.1 |
| 20260905153831 | 82 | 11 | 4.3 | 4.3 | 0.00 | 0.00 | 0.00 | 76 | 1015.0 |
| 20260905153330 | 82 | 58 | 9.6 | 3.5 | 0.00 | 0.00 | 0.00 | 76 | 1014.9 |
| 20260905152831 | 82 | 72 | 2.6 | 3.5 | 0.00 | 0.00 | 0.00 | 76 | 1014.9 |
| 20260905152330 | 82 | 360 | 4.3 | 3.5 | 0.00 | 0.00 | 0.00 | 77 | 1015.0 |
| 20260905151831 | 82 | 37 | 3.5 | 3.5 | 0.00 | 0.00 | 0.00 | 77 | 1014.9 |
| 20260905151331 | 81 | 13 | 3.5 | 3.5 | 0.00 | 0.00 | 0.00 | 77 | 1014.8 |
| 20260905150831 | 81 | 17 | 1.7 | 3.5 | 0.00 | 0.00 | 0.00 | 77 | 1014.8 |
| 20260905150330 | 81 | 359 | 5.2 | 3.5 | 0.00 | 0.00 | 0.00 | 77 | 1014.8 |
| 20260905145831 | 81 | 30 | 1.7 | 3.5 | 0.00 | 0.00 | 0.00 | 77 | 1014.8 |
| 20260905145330 | 81 | 73 | 4.3 | 2.6 | 0.00 | 0.00 | 0.00 | 77 | 1014.8 |
| 20260905144831 | 81 | 356 | 2.6 | 2.6 | 0.00 | 0.00 | 0.00 | 78 | 1014.6 |
| 20260905144331 | 81 | 68 | 3.5 | 2.6 | 0.00 | 0.00 | 0.00 | 79 | 1014.7 |
| 20260905143831 | 80 | 3 | 2.6 | 3.5 | 0.00 | 0.00 | 0.00 | 80 | 1014.6 |
| 20260905143330 | 80 | 0 | 0.0 | 3.5 | 0.00 | 0.00 | 0.00 | 81 | 1014.6 |
| 20260905142830 | 80 | 38 | 1.7 | 2.6 | 0.00 | 0.00 | 0.00 | 82 | 1014.6 |
| 20260905142330 | 79 | 56 | 2.6 | 2.6 | 0.00 | 0.00 | 0.00 | 82 | 1014.5 |
| 20260905141831 | 79 | 359 | 0.9 | 3.5 | 0.00 | 0.00 | 0.00 | 83 | 1014.5 |
| 20260905141330 | 79 | 338 | 3.5 | 3.5 | 0.00 | 0.00 | 0.00 | 84 | 1014.5 |
| 20260905140830 | 79 | 38 | 4.3 | 3.5 | 0.00 | 0.00 | 0.00 | 85 | 1014.4 |
| 20260905140330 | 79 | 30 | 3.5 | 3.5 | 0.00 | 0.00 | 0.00 | 86 | 1014.4 |
| 20260905135831 | 78 | 1 | 2.6 | 2.6 | 0.00 | 0.00 | 0.00 | 87 | 1014.4 |
| 20260905135330 | 78 | 36 | 1.7 | 2.6 | 0.00 | 0.00 | 0.00 | 88 | 1014.5 |
| 20260905134831 | 77 | 56 | 0.9 | 2.6 | 0.00 | 0.00 | 0.00 | 89 | 1014.5 |
| 20260905134330 | 77 | 1 | 3.5 | 2.6 | 0.00 | 0.00 | 0.00 | 90 | 1014.6 |
| 20260905133832 | 77 | 41 | 1.7 | 2.6 | 0.00 | 0.00 | 0.00 | 91 | 1014.6 |
| 20260905133330 | 76 | 0 | 0.0 | 2.6 | 0.00 | 0.00 | 0.00 | 91 | 1014.8 |
| 20260905132831 | 76 | 39 | 0.9 | 2.6 | 0.00 | 0.00 | 0.00 | 91 | 1014.9 |
| 20260905132331 | 76 | 337 | 4.3 | 2.6 | 0.00 | 0.00 | 0.00 | 92 | 1014.6 |
| 20260905131830 | 76 | 37 | 1.7 | 3.5 | 0.00 | 0.00 | 0.00 | 92 | 1014.4 |
| 20260905131330 | 76 | 1 | 1.7 | 2.6 | 0.00 | 0.00 | 0.00 | 92 | 1014.4 |
| 20260905130830 | 75 | 12 | 1.7 | 2.6 | 0.00 | 0.00 | 0.00 | 92 | 1014.4 |
| 20260905130330 | 75 | 58 | 4.3 | 2.6 | 0.00 | 0.00 | 0.00 | 92 | 1014.3 |
| 20260905125831 | 75 | 12 | 0.9 | 2.6 | 0.00 | 0.00 | 0.00 | 93 | 1014.2 |
| 20260905125330 | 75 | 1 | 4.3 | 2.6 | 0.00 | 0.00 | 0.00 | 92 | 1014.1 |
| 20260905124831 | 75 | 309 | 3.5 | 1.7 | 0.00 | 0.00 | 0.00 | 92 | 1014.0 |
| 20260905124330 | 75 | 68 | 0.9 | 1.7 | 0.00 | 0.00 | 0.00 | 92 | 1014.0 |
| 20260905123830 | 75 | 339 | 1.7 | 2.6 | 0.00 | 0.00 | 0.00 | 92 | 1014.0 |
| 20260905123330 | 74 | 319 | 2.6 | 2.6 | 0.00 | 0.00 | 0.00 | 92 | 1013.8 |
| 20260905122832 | 74 | 358 | 2.6 | 1.7 | 0.00 | 0.00 | 0.00 | 92 | 1013.7 |
| 20260905122330 | 74 | 318 | 1.7 | 1.7 | 0.00 | 0.00 | 0.00 | 92 | 1013.7 |
| 20260905121830 | 74 | 311 | 1.7 | 1.7 | 0.00 | 0.00 | 0.00 | 92 | 1013.7 |
| 20260905121330 | 74 | 316 | 3.5 | 2.6 | 0.00 | 0.00 | 0.00 | 92 | 1013.6 |
| 20260905120831 | 74 | 352 | 0.9 | 1.7 | 0.00 | 0.00 | 0.00 | 92 | 1013.7 |
| 20260905120330 | 74 | 360 | 1.7 | 1.7 | 0.00 | 0.00 | 0.00 | 92 | 1013.5 |
| 20260905115831 | 74 | 311 | 1.7 | 1.7 | 0.00 | 0.00 | 0.00 | 91 | 1013.3 |
| 20260905115330 | 74 | 339 | 1.7 | 1.7 | 0.00 | 0.00 | 0.00 | 91 | 1013.2 |
| 20260905114831 | 74 | 44 | 2.6 | 1.7 | 0.00 | 0.00 | 0.00 | 91 | 1013.2 |
| 20260905114330 | 74 | 65 | 0.9 | 1.7 | 0.00 | 0.00 | 0.00 | 91 | 1013.1 |
| 20260905113832 | 74 | 1 | 1.7 | 2.6 | 0.00 | 0.00 | 0.00 | 91 | 1013.0 |